Skip Page Navigation
NASA JPL Caltech
NASA Logo - Jet Propulsion Laboratory + View the NASA Portal
+ Near-Earth Object (NEO) Program
Search JPL
JPL Home Earth Solar System Stars & Galaxies Technology
JPL Solar System Dynamics
BODIES ORBITS EPHEMERIDES TOOLS PHYSICAL DATA DISCOVERY FAQ SITE MAP
JPL Small-Body Database Browser
Search: [ help ]  
143624 (2003 HM16)
Classification: Apollo [NEO]          SPK-ID: 2143624
Ephemeris | Orbit Diagram | Orbital Elements | Physical Parameters | Discovery Circumstances | Close-Approach Data ]

[ hide orbit diagram ]
Orbit Diagram
Note: Make sure you have Java enabled on your browser to see the applet. This applet is provided as a 3D orbit visualization tool. The applet was implemented using 2-body methods, and hence should not be used for determining accurate long-term trajectories (over several years or decades) or planetary encounter circumstances. For accurate long-term ephemerides, please instead use our Horizons system.
Orbit Viewer

Additional Notes: the orbits shown in the applet are color coded. The planets are white lines, and the asteroid/comet is a blue line. The bright white line indicates the portion of the orbit that is above the ecliptic plane, and the darker portion is below the ecliptic plane. Likewise for the asteroid/comet orbit, the light blue indicates the portion above the ecliptic plane, and the dark blue the portion below the ecliptic plane.

Orbit Viewer applet originally written and kindly provided by Osamu Ajiki (AstroArts), and further modified by Ron Baalke (JPL).


Orbital Elements at Epoch 2456400.5 (2013-Apr-18.0) TDB
Reference: JPL 93 (heliocentric ecliptic J2000)
 Element Value Uncertainty (1-sigma)   Units 
e .5761161467693544 1.0185e-07  
a 1.96723324513646 1.1038e-07 AU
q .8338784081518701 2.0393e-07 AU
i 35.61013883910745 1.8815e-05 deg
node 196.0351810271719 1.6006e-05 deg
peri 46.95176347394431 3.2447e-05 deg
M 202.2484592220856 0.00011676 deg
tp 2456842.124662487917
(2014-Jul-03.62466249)
0.00036398 JED
period 1007.818229296867
2.76
8.482e-05
2.322e-07
d
yr
n .3572072716437808 3.0063e-08 deg/d
Q 3.100588082121051 1.7397e-07 AU
  Orbit Determination Parameters
   # obs. used (total)      367  
   data-arc span      3455 days (9.46 yr)  
   first obs. used      2003-04-27  
   last obs. used      2012-10-11  
   planetary ephem.      DE405  
   SB-pert. ephem.      SB405-CPV-2  
   condition code      0  
   fit RMS      .54946  
   data source      ORB  
   producer      Otto Matic  
   solution date      2013-Apr-29 15:47:00  

Additional Information
 Earth MOID = .0504925 AU 
 T_jup = 3.462 
[ show covariance matrix ]

Ephemeris | Orbit Diagram | Orbital Elements | Physical Parameters | Discovery Circumstances | Close-Approach Data ]

Physical Parameter Table
Parameter Symbol Value Units Sigma Reference Notes
absolute magnitude H 15.752 mag .58927 93 autocmod 2.5c

143624 (2003 HM16)          Discovered 2003-Apr-27 by LINEAR at Socorro (704)
Reference: 20061205/Numbers.arcLast Updated: 2006-12-13

[ show close-approach data ]
Ephemeris | Orbit Diagram | Orbital Elements | Physical Parameters | Discovery Circumstances | Close-Approach Data ]
ABOUT SSD CREDITS/AWARDS PRIVACY/COPYRIGHT GLOSSARY LINKS
FirstGov 2013-May-19 13:35 UT
(server date/time)  
NASA Home Page
Site Manager:   Donald K. Yeomans
Webmaster  Alan B. Chamberlin